Home   Weather   Völklingen   Past weeks

Flag for Germany Past Weather in Völklingen, Saarland, Germany — Yesterday and Last 2 Weeks

Now
28 °F

Ice fog.


Feels Like: 23 °F
Forecast: 24 / 40 °F
Wind: 5 mph from Northeast

Location: Saarbruecken / Ensheim

Current Time: Dec 5, 2016 at 5:39:22 pm

Latest Report: Dec 5, 2016 at 5:20 pm


Visibility: 0 mi

Pressure: 30.33 "Hg

Humidity: 100%

Dew Point: 28 °F

Location of VölklingenLocation

Past Weather in Völklingen — Graph

°F

Völklingen Temperature Yesterday

Maximum temperature yesterday: 37 °F (at 1:50 pm)
Minimum temperature yesterday: 25 °F (at 6:20 am)
Average temperature yesterday: 29 °F

High & Low Weather Summary for the Past Weeks

 TemperatureHumidityPressure
High57 °F (Nov 20, 4:20 pm)100% (Nov 21, 9:50 pm)30.54 "Hg (Nov 21, 9:50 pm)
Low19 °F (Nov 30, 6:50 am)48% (Nov 29, 1:20 pm)29.56 "Hg (Nov 21, 2:20 pm)
Average39 °F83%30.12 "Hg
* Reported Nov 20 4:20 pm — Dec 5 4:20 pm, Völklingen, Weather by CustomWeather, © 2016

Note: Actual official high and low records may vary slightly from our data, if they occured in-between our weather recording intervals... More about our weather records

Advertising

Völklingen Weather History for the Previous 24 Hours

Scroll right to see more
 ConditionsComfort  
Time TempWeatherWind HumidityBarometerVisibility
4:20 pm
Mon, Dec 5
28 °FIce fog.5 mph100%30.30 "Hg0 mi
3:50 pm28 °FIce fog.6 mph100%30.30 "Hg0 mi
3:20 pm30 °FIce fog.5 mph93%30.30 "Hg0 mi
2:50 pm30 °FIce fog.3 mph93%30.30 "Hg0 mi
2:20 pm30 °FIce fog.5 mph100%30.30 "Hg0 mi
1:50 pm28 °FIce fog.5 mph100%30.30 "Hg0 mi
1:20 pm28 °FIce fog.5 mph100%30.30 "Hg0 mi
12:50 pm28 °FIce fog.5 mph100%30.30 "Hg0 mi
12:20 pm28 °FIce fog.5 mph100%30.30 "Hg0 mi
11:50 am28 °FIce fog.5 mph100%30.33 "Hg0 mi
11:20 am28 °FIce fog.6 mph100%30.33 "Hg0 mi
10:50 am28 °FIce fog.6 mph100%30.33 "Hg0 mi
10:20 am28 °FLight snow. Ice fog.7 mph93%30.30 "Hg0 mi
9:50 am28 °FLight snow. Ice fog.6 mph93%30.30 "Hg0 mi
9:20 am27 °FIce fog.6 mph100%30.30 "Hg0 mi
8:50 am27 °FIce fog.6 mph100%30.30 "Hg0 mi
8:20 am27 °FIce fog.7 mph100%30.30 "Hg0 mi
7:50 am27 °FIce fog.6 mph100%30.30 "Hg1 mi
7:20 am27 °FIce fog.7 mph100%30.30 "Hg1 mi
6:50 am27 °FIce fog.7 mph93%30.30 "Hg1 mi
6:20 am27 °FIce fog.7 mph93%30.27 "Hg0 mi
5:50 am27 °FIce fog.6 mph93%30.27 "Hg0 mi
5:20 am27 °FIce fog.8 mph93%30.27 "Hg0 mi
4:50 am27 °FIce fog.9 mph93%30.27 "Hg0 mi
4:20 am25 °FIce fog.9 mph100%30.27 "Hg1 mi
3:50 am25 °FIce fog.9 mph100%30.27 "Hg1 mi
3:20 am25 °FPassing clouds.10 mph93%30.30 "Hg4 mi
2:50 am25 °FClear.7 mph93%30.30 "Hg6 mi
2:20 am25 °FClear.7 mph93%30.27 "Hg10 mi
1:50 am25 °FClear.7 mph93%30.27 "Hg10 mi
1:20 am25 °FClear.8 mph93%30.27 "Hg10 mi
12:50 am27 °FClear.9 mph86%30.27 "Hg10 mi
12:20 am27 °FClear.9 mph86%30.27 "Hg10 mi
11:50 pm
Sun, Dec 4
27 °FClear.9 mph86%30.27 "Hg10 mi
11:20 pm27 °FClear.9 mph86%30.27 "Hg10 mi
10:50 pm27 °FClear.9 mph86%30.27 "Hg10 mi
10:20 pm27 °FClear.10 mph86%30.27 "Hg10 mi
9:50 pm28 °FClear.9 mph80%30.27 "Hg10 mi
9:20 pm28 °FClear.10 mph80%30.27 "Hg10 mi
8:50 pm28 °FClear.10 mph80%30.27 "Hg10 mi
8:20 pm28 °FClear.10 mph80%30.27 "Hg10 mi
7:50 pm28 °FClear.12 mph86%30.27 "Hg10 mi
7:20 pm30 °FClear.12 mph80%30.27 "Hg10 mi
6:50 pm28 °FPassing clouds.12 mph86%30.27 "HgN/A
6:20 pm28 °FClear.9 mph86%30.27 "Hg10 mi
5:50 pm28 °FClear.9 mph86%30.27 "Hg10 mi
5:20 pm30 °FClear.8 mph80%30.27 "Hg10 mi
Weather by CustomWeather, © 2016

See weather overviewHow to use our weather pages